sat.trackr.live / text

‹ back to catalog

STARLINK-6046

NORAD 56792 · 2023-078AB

PAYLOAD ACTIVE UNKNOWN

§ Identity

Operator
Country
US
Launch date
2023-05-31
Launch site
AFWTR
Launch vehicle
Mass (kg)
RCS (m²)

Purposes: comms

External: N2YO · Heavens-Above · Gunter

§ Orbital elements

Epoch: 2026-05-25T02:39:41.967360Z

Period
96.11 min
Inclination
69.9988°
Eccentricity
0.0004125
Mean motion
14.98327999 rev/d
Perigee alt
569.2 km
Apogee alt
574.9 km
Semi-major
6,950.2 km
B*
4.1034e-5
RAAN
151.9221°
Arg perigee
277.7877°
Mean anomaly
82.2813°
Rev number
16,412

§ Raw data

STARLINK-60461 56792U 23078AB  26145.11090240  .00000396  00000+0  41034-4 0  99972 56792  69.9988 151.9221 0004125 277.7877  82.2813 14.98327999164127

JSON: /api/v1/satellites/56792 · /tle

For live sub-satellite position, see the globe view (requires WebGL).

§ Visibility from observer

Set your observer location to see the next 7 days of passes ≥ 10°. The values pass through the URL so the page stays shareable.

No JS? Fill the form by hand. The geolocation button needs JavaScript.